SL-14 DEB, 45338

Orbit data source: Space-Track

SL-14 DEB, 45338 is space debris in LEO originally from a launch on Thu, 15 Aug 1991 UTC launched from the Plesetsk Missile And Space Complex (PKMTR). Debris objects in space refer to the collection of defunct objects orbiting the Earth. Examples of debris include non-operational satellites, rocket bodies, and fragments generated from explosions, collisions, or faulty payload assembly.

Loading next visibility...
Identifier
45338, 1991-056CC
Orbit
LEO
Country
Flag of CISCIS
Related business
Manufacturer
Unknown
Mission
Spacecraft
Bus & Motor
Unknown
Mass
Unknown
Launch date (UTC)
1991-08-15 (34 years ago)
Launch vehicle
Unknown
Launch site
Plesetsk Missile And Space Complex (PKMTR)
Object type
Payload
Rocket body
Debris
Shape & HBR
Unknown shape, 0.1 m
Radar Cross Section
Small (<0.1 m²)

Expand to show TLE details & history
Last TLE update: 6 hours ago

TLE from 6 hours ago
0 SL-14 DEB
1 45338U 91056CC  26038.30703195  .00008849  00000-0  81533-2 0  9992
2 45338  82.5650 126.4805 0112133  34.2943 326.5388 13.79721590293815
Epoch: 2026-02-07T07:22Z
TLE epoch observation values (Epoch: 2026-02-07T07:22:07.560Z)
Latitude
-0.00004°
Longitude
-121.48344°
Altitude
899.35 km
Speed
7.437 km/s
True Right ascension
08h 25m 55s
True Declination
0° 00' 00"
Sunlit
Object was in full shadow at epoch
Visualization orbit readout
Latitude
Unknown
Longitude
Unknown
Altitude
Unknown
Speed
Unknown
Apparent Right ascension
Unknown
Apparent Declination
Unknown
Sunlit
N/A
Visualization observer readout
Local Sidereal Time
15:25:54
Azimuth
Unknown
Elevation
Unknown
Doppler factor
Unknown
Orbital elements
Apogee altitude
1,044.338 km
Perigee altitude
879.723 km
Semi-major axis
7,340.168 km
Eccentricity
0.01121
Inclination
82.565°
RAAN
126.4805°
Arg. of periapsis
34.2943°
True anomaly
325.82195°
Mean anomaly
326.5388°
Eccentric anomaly
326.18122°
Mean motion
3.45131 °/min
Orbital period
104.31 mins
BSTAR
0.0081533
Loading maneuver chart data...
Computing Atmospheric mass density...
Loading historical data...
Loading historical data...
Loading historical data...
Loading historical data...
Loading historical data...
Loading historical data...
Loading historical data...

Documentation

Showing up to 5 results
|